Regional Weather Roundup
Issued by NWS Wakefield, VA

Home | Current Version | Previous Version | Text Only | Print | Product List | Glossary Off
Versions: 1 2 3 4 5 6 7 8 9 10 11 12 13 14 15 16 17 18 19 20 21 22 23 24 25 26 27 28 29 30 31 32 33 34 35 36 37 38 39 40 41 42 43 44 45 46 47 48 49 50

000
ASUS41 KAKQ 210110
RWRAKQ

REGIONAL WEATHER ROUNDUP
NATIONAL WEATHER SERVICE WAKEFIELD VA
900 PM EDT WED AUG 20 2014

Note: "fair" indicates few or no clouds below 12,000 feet with no
significant weather and/or obstructions to visibility. * = Denotes
station may not report precipitation (e.g., rain,snow,etc.),
thunder or fog.

VAZ042-051-052>054-056-210200-
NORTHERN VIRGINIA

CITY           SKY/WX    TMP DP  RH WIND       PRES   REMARKS
WASH NATIONAL  CLOUDY    76  62  62 NE3       29.98R
DULLES         MOCLDY    68  65  90 W6        29.99R
FORT BELVOIR   CLOUDY    69  67  95 CALM      29.97R
QUANTICO       CLOUDY    72  69  90 NW7       29.97S
FREDERICKSBRG* CLOUDY    71  71 100 N3        29.96R
STAFFORD*      CLOUDY    69  69 100 NW3       30.01S
WARRENTON      CLOUDY    70  70 100 W5        29.99R
CULPEPER*      MOCLDY   N/A N/A N/A CALM      30.00R
MANASSAS*      CLOUDY    70  68  94 CALM      29.98R
LEESBURG*      MOCLDY    68  68 100 W5        30.00R
WINCHESTER     PTCLDY    70  68  94 NW3       30.00R
$$

VAZ048-049-060>072-079>083-210200-
CENTRAL AND SOUTH CENTRAL VIRGINIA...AND NORTH CENTRAL NORTH CAROLINA

CITY           SKY/WX    TMP DP  RH WIND       PRES   REMARKS
RICHMOND       MOCLDY    76  69  79 SE6       29.98R
CHESTERFIELD*  PTCLDY   N/A N/A N/A SE3       29.99S
HANOVER        PTCLDY    77  66  68 VRB3      29.99S
TAPPAHANNOCK*  PTCLDY    74  62  64 E5        29.98F
CHARLOTTSVILLE TSTM      69  67  93 CALM      30.00R FOG
ORANGE*        MOCLDY    68  68 100 N3        30.01S
LOUISA*        CLOUDY    72  70  94 CALM      29.98F
FARMVILLE*     PTCLDY    77  75  94 CALM      29.96S
SOUTH HILL*    CLEAR     77  77 100 CALM      30.04R
ROANOKE RAPIDS CLEAR     75  73  94 CALM      29.99R
RALEIGH        PTCLDY    75  66  73 CALM      29.99R
$$

VAZ088>098-210200-
SOUTHEAST VIRGINIA

CITY           SKY/WX    TMP DP  RH WIND       PRES   REMARKS
NORFOLK        PTCLDY    76  69  79 E6        30.00R
VIRGINIA BEACH PTCLDY    75  69  81 E6        29.99R
NORFOLK NAVAL  PTCLDY    77  69  76 E7        30.01R
WEST POINT*    PTCLDY    75  67  75 CALM      30.01R
NEWPORT NEWS   PTCLDY    78  69  73 E6        30.00R
LANGLEY AFB    PTCLDY    76  72  89 SE7       29.99R
FORT EUSTIS    PTCLDY    76  65  68 SE6       29.98R
WILLIAMSBURG*  PTCLDY    77  72  83 SE3       30.00S
FRANKLIN*      MOCLDY    77  72  83 E3        30.00R
WAKEFIELD      PTCLDY    76  69  79 VRB3      29.99R
$$

VAZ020-022-025-037-045-210200-
WESTERN AND SOUTHWEST VIRGINIA

CITY           SKY/WX    TMP DP  RH WIND       PRES   REMARKS
STAUNTON*      CLOUDY    71  67  88 S3        30.03R
HOT SPRINGS VA CLEAR     67  59  75 W8        30.18R
LYNCHBURG      CLEAR     74  73  97 CALM      30.01R
DANVILLE       MOCLDY    77  71  82 CALM      29.99R
MARTINSVILLE   CLEAR     74  73  98 CALM      30.03R
ROANOKE        PTCLDY    80  68  66 VRB5      30.03R THUNDER
BLACKSBURG     CLEAR     72  72 100 W3        30.09R
DUBLIN*        PTCLDY    73  69  87 W5        30.09R
MARION*        CLOUDY    73  70  89 SW8       30.16R
HILLSVILLE*    MOCLDY    73  66  77 W6        30.12R
RICHLANDS*     CLOUDY    76  70  82 W9        30.15R
WISE*          RAIN      66  66 100 W9        30.24R
ABINGDON*      LGT RAIN  73  68  83 W7        30.16R
$$

MDZ021>025-VAZ099-100-210200-
SOUTHERN MARYLAND AND THE DELMARVA PENINSULA

CITY           SKY/WX    TMP DP  RH WIND       PRES   REMARKS
PATUXENT RIVER PTCLDY    76  62  62 SE10      29.94F
BAY BRIDGE APT   N/A     77  66  69 SE5       29.97S
LEONARDTOWN    MOCLDY    73  59  60 SW5       29.99R
DOVER          MOCLDY    73  68  84 SE9       29.98S
GEORGETOWN     PTCLDY    71  64  78 SE7       30.00F
EASTON         CLOUDY    77  66  69 SE3       30.00F
CAMBRIDGE      CLOUDY    77  61  57 E9        29.96R
SALISBURY      PTCLDY    73  64  73 SE12      29.96F
OCEAN CITY     CLEAR     72  64  76 SE8       30.00F
WALLOPS ISLAND CLEAR     74  68  81 E8        30.01S
ACCOMACK*      PTCLDY    70  66  88 CALM      30.00S
$$

NCZ012>017-030>032-210200-
EASTERN NORTH CAROLINA

CITY           SKY/WX    TMP DP  RH WIND       PRES   REMARKS
ELIZABETH CITY CLEAR     76  71  85 E8        29.99R
AHOSKIE*       PTCLDY    76  74  93 CALM      30.00R
EDENTON*       CLEAR     79  74  86 SE6       29.99R
CURRITUCK*     CLEAR     76  68  76 CALM      30.00S
KILL DEVIL HLS CLEAR     76  71  83 CALM      30.00R
MANTEO         CLEAR     75  72  88 CALM      30.00R
CAPE HATTERAS  MOCLDY    75  72  90 E3        30.00R
GOLDSBORO      PTCLDY    80  80  98 SE5       29.96R
WASHINGTON     CLEAR     78  73  87 CALM      29.99R
GREENVILLE     PTCLDY    77  75  94 CALM      30.00R
NEW BERN       CLEAR     80  75  84 CALM      30.00R
WILMINGTON     CLEAR     78  76  93 S3        29.98R
$$

VAZ048-210200-
ELSEWHERE

CITY           SKY/WX    TMP DP  RH WIND       PRES   REMARKS
HARRISBURG PA  MOCLDY    75  67  76 S6        29.97S
BALTIMORE      CLOUDY    72  68  87 CALM      29.97S
ANNAPOLIS        N/A     77  65  66 S7        29.97S
ANDREWS AFB    CLOUDY    71  67  85 NE5       29.98R
WILMINGTON DE  CLOUDY    75  65  70 SE9       30.00R
PHILADELPHIA   MOCLDY    75  65  70 SE5       30.00S
WILDWOOD NJ*   CLEAR     70  61  73 E5        30.02F
ATLANTIC CITY  PTCLDY    69  63  81 SE6       30.02S
HENDERSON NC   CLEAR     77  72  84 CALM      30.00R
GREENSBORO     MOCLDY    80  70  71 SW5       30.00R
ROCKY MOUNT    PTCLDY    76  74  93 CALM      29.99R
FAYETTEVILLE   CLEAR     82  75  79 S6        29.97R
CHARLOTTE      MOCLDY    81  72  74 CALM      30.03R
$$

VAZ100-210200-
MARINE

STATION/POSITION TIME  TEMP    WIND        PRES    WAVE   SWELL
                       AIR SEA DIR/SP/G            HT/PER HT/PER
                 (UTC) (F)     (DEG/KT/KT) (MB)    (FT/S) (FT/S)
44066 TX TWR #4  0100   71 73   50/  4/  6 1016.6R   3/ 6   3/ 6
CAPE MAY NJ      0100   71 80  110/  5/  5 1015.7F
LEWES DE         0100   72 77  130/  5/  8 1015.5F
15NM E FENWICK I 0100   74 75              1016.2R   3/ 6
OCEAN-CITY-INLET 0100   74 76  140/  6/  9 1015.7F
WACHAPREAGUE VA  0100   74 81   90/  6/  8 1015.8R
THOMAS POINT MD  0100   78 78  160/ 12/ 14 1015.4R
GOOSES REEF MD   0100   79     170/ 14/ 16 1014.7F
COVE POINT MD    0100   78     180/ 17/ 19 1014.0F
SOLOMONS ISLAND  0100      81                N/A
BISHOPS HEAD MD  0100   77 81  140/ 20/ 24 1013.0F
PINEY POINT MD   0100          180/ 13/ 16   N/A
POTOMAC MD       0100   78     150/ 16/ 19 1013.5F
CAMBRIDGE MD     0100   77 78   80/  7/  9 1014.4F
LEWISETTA VA     0100   76 80  180/  9/ 12 1013.7R
RAPPAHANNOCK LGT 0100           90/  8/  9 1016.4R
STINGRAY PT      0100   77     130/ 10/ 12 1016.3S
YORK RVR RNG VA  0100   76     120/ 11/ 12 1015.4R
YORKTOWN VA      0100   77 80  130/ 10/ 12 1015.6S
JAMESTOWN VA     0100   74     110/  8/ 12   N/A
DOMINION TERM VA 0100   77     100/ 10/ 12 1015.8R
KIPTOPEKE VA     0100      82  110/  4/  7   N/A
CHES BAY BRIDGE  0100   77 76   80/  9/ 12 1015.5R
CAPE HENRY VA    0100   76      90/ 12/ 13 1014.5R
CHESAPEAKE LGHT  0000   76      70/ 11/ 12 1016.1R
WILLOUBY STN VA  0100   77      90/  8/ 10 1014.6R
S CRANEY ISL VA  0100           60/  8/ 10 1015.5R
CAPE HENRY BUOY  0100      78                N/A     2/ 5
1ST LANDING BUOY 0100   77     100/ 12/ 14 1015.3R
CAPE CHARLES BUO 0100      77                N/A     2/ 6   2/ 6
OFFSHORE WE BUOY 0100      78                N/A     3/ 8   2/ 8
64NM E OF VA BCH 0100   77 78   70/  6/  8 1015.6R   3/ 7   2/ 7
DUCK PIER NC     0100   77 80   80/  6/  7 1015.2R
44056 DUCK FRF   0100                        N/A     2/ 5
OREGON INLET NC  0100   77 83   80/  2/  6 1015.8R
HATTERAS NC      0100   79 82   90/  4/  5 1016.1R
DIAMOND SHLS NC  0100   77     330/  2/  6 1015.7R   3/ 6   2/ 6
CAPE LOOKOUT NC  0000   81     230/  4/  5 1015.1R
$$


USA.gov is the U.S. government's official web portal to all federal, state and local government web resources and services.